Voltar ao catálogo

SNAP-3 JIMI

AtivoCiênciaLEO
NORAD 40975·PAYLOAD·🇺🇸 United States

Lançado Oct 8, 2015 de Vandenberg Space Force Base

Loading…

Próximas Passagens (próximas 24 horas)

TLE

AtualizadoSource: Space-Track

Época: Sep 14, 2026, 02:20 UTC

1 40975U 15058M   26257.09752675  .00003855  00000-0  25969-3 0  9992
2 40975  64.7639 298.2531 0113437  21.0501 339.5230 15.03136193127580

Acompanhe SNAP-3 JIMI em tempo real com AllMySat

Download on the App Store